Regional Weather Roundup
Issued by NWS Green Bay, WI

Home | Current Version | Previous Version | Text Only | Print | Product List | Glossary On
Versions: 1 2 3 4 5 6 7 8 9 10 11 12 13 14 15 16 17 18 19 20 21 22 23 24 25 26 27 28 29 30 31 32 33 34 35 36 37 38 39 40 41 42 43 44 45 46 47 48 49 50
000
ASUS43 KGRB 171800
RWRGRB

NORTH-CENTRAL AND NORTHEAST WISCONSIN REGIONAL WEATHER ROUNDUP
NATIONAL WEATHER SERVICE GREEN BAY WI
1200 PM CST WED JAN 17 2018

WIZ005-009-010>012-018-019-171900-
NORTH CENTRAL WISCONSIN

CITY           SKY/WX    TMP DP  RH WIND       PRES   REMARKS
IRONWOOD       FAIR      24   5  44 SW18G24   29.97F
MANITOWISH WTR NOT AVBL
ARBOR VITAE    NOT AVBL
EAGLE RIVER    LGT SNOW  16   3  56 SW17G24   30.04F WCI   0
LAND O LAKES   NOT AVBL
RHINELANDER    FAIR      15   4  61 SW15G24   30.08F WCI   0
PHILLIPS       FAIR      13   1  58 SW12G17   30.11F WCI   0
ANTIGO         NOT AVBL
TOMAHAWK       NOT AVBL
MERRILL        FAIR      15   3  59 SW9       30.18F WCI   3
$$

WIZ013-073-171900-
NORTHEAST WISCONSIN

CITY           SKY/WX    TMP DP  RH WIND       PRES   REMARKS
IRON MOUNTAIN  FAIR      20   2  45 W8        30.03F
MARINETTE      FAIR      20   6  55 W14G23    30.16F WCI   7
$$

WIZ017-030-035>037-045-171900-
CENTRAL WISCONSIN

CITY           SKY/WX    TMP DP  RH WIND       PRES   REMARKS
MEDFORD        NOT AVBL
WAUSAU         FAIR      15   2  56 W14       30.19F WCI   0
MOSINEE        NOT AVBL
MARSHFIELD     FAIR      15   3  59 SW16      30.21F WCI  -1
WISC RAPIDS    FAIR      18   2  49 SW16      30.27F WCI   3
STEVENS POINT  NOT AVBL
WAUPACA        NOT AVBL
SHAWANO        FAIR      20   4  49 SW10G20   30.21F WCI   8
CLINTONVILLE   NOT AVBL
WAUTOMA        FLURRIES  22   7  52 SW13G23   30.29F WCI  10
$$

WIZ038-039-048-051-171900-
FOX VALLEY

CITY           SKY/WX    TMP DP  RH WIND       PRES   REMARKS
NWS GREEN BAY  FAIR      18   3  52 SW16G25   30.24F WCI   3
APPLETON       MOSUNNY   16   1  53 SW16G23   30.25F WCI   0
OSHKOSH        FAIR      17   4  56 W14G25    30.29F WCI   3
FOND DU LAC    FAIR      17   3  54 SW17G24   30.32F WCI   1
$$

WIZ022-050-052-171900-
EAST CENTRAL WISCONSIN

CITY           SKY/WX    TMP DP  RH WIND       PRES   REMARKS
EPHRAIM        NOT AVBL
WASHINGTON ISL NOT AVBL
STURGEON BAY   FLURRIES  16   4  59 SW18G28   30.18  WCI   0
MANITOWOC      FAIR      18   4  54 W18G24    30.27F WCI   2
SHEBOYGAN      FAIR      20   8  60 W20G26    30.30F WCI   4
$$

LMZ563-521-522-541>543-171900-
LAKESHORE

STATION/POSITION TIME  TEMP    WIND        PRES    VSBY  WAVE
                       AIR SEA DIR/SP/G                  HT/PER
                 (UTC) (F)     (DEG/KT/KT) (MB)    (MI)  (FT/S)
SHEBOYGAN LKSHOR 1700   17     230/ 13/ 15 1029.5F
KEWAUNEE LKSHORE 1730   16     260/ 18/ 24 1023.7F
NORTHPORT PIER   1730   15     240/  4/ 15 1021.0F
MENOMINEE LKSHOR 1724   16     220/ 19/ 25 1022.0
$$




USA.gov is the U.S. government's official web portal to all federal, state and local government web resources and services.